星链-1211 (STARLINK-1211 )

导读

STARLINK-1211是美国SpaceX星链计划的低轨通信卫星,属于星链V1.0系列,于2020年2月17日发射升空,国际标识为2020-012AG。该卫星运行在近地轨道,旨在为全球提供高速互联网服务,尤其助力偏远地区网络覆盖。作为星链星座的组成部分,它依托星链规模化部署增强全球通信能力,目前该卫星已陨落,完成服役生命周期。

基本信息
目录编号:
45208
目录名称:
STARLINK-1211
国际标识:
2020-012AG
轨道中心:
EARTH
卫星名称:
星链-1211
卫星全名:
星链-1211 (STARLINK-1211 )
卫星状态:
已陨落 最后检测时间 2023-12-06
发射日期:
2020-02-17 UTC
国别 :
美国 (US)
星等 :
--
该卫星已列入 空间交会检测服务 Space Conjunction Data Service (SCDS) ,当前飞行风险评估等级: 无高风险
轨道信息
数据来源 国际轨道数据
星历时间: 2023-12-06T06:34:42+0800
轨道信息已过期1011天
半长轴: 6561.518km
偏心率: 0.0001648
轨道倾角: 52.990°
近地点辐角 123.732°
升交点赤经 13.705°
平近点角 12.598°
近地点: 182.301km
远地点: 184.465km
周期: 88.159分钟
每日圈数: 16.334141
详细信息
固有亮度:
5
最大亮度:
2.5
卫星平台:
Starlink V1.0
覆盖范围:
全球
运营商:
太空探索技术公司
运营商所在国:
美国
制造商(研发单位):
太空探索技术公司
制造商所在国:
美国
使用方式:
暂无
卫星简介
星链(Starlink)计划是由太空探索技术公司(SpaceX)提出的一个巨型低轨卫星互联网星座项目,计划在2019年至2024年间在太空搭建由约1.2万颗卫星组成的“星链”网络,其中1584颗将部署在地球上空550千米处的近地轨道,并从2020年开始工作。该卫星已陨落。
与全量物体交会距离演化趋势
与全量物体交会风险概率演化趋势